This demonstration page uses our WeatherBlox Daily Observations layout. Learn more.

Left ArrowRight Arrow

39.08367, -84.50855

Hourly Observations for July 8, 2017

Temp ( °F °C ) Dew Point ( °F °C ) Humidity (%) Winds ( mph kmh ) Pressure ( in mb ) Visibility ( mi km ) Precip ( " mm )
12:07 am 00:07 Mostly Cloudy 64 18 N/A N/A SSW 5 7 29.91 1013 10 16.0934 N/A
12:39 am 00:39 Partly Cloudy 66 18.9 66 18.9 100 100 S 3 6 29.91 1013 10 16.0934 N/A
12:53 am 00:53 Clear 66 18.9 66 18.9 100 100 S 6 9 29.89 1012 10 16.0934 N/A
1:53 am 01:53 Mostly Cloudy 65 18.3 65 18.3 100 100 SSW 5 7 29.9 1012 10 16.0934 N/A
2:53 am 02:53 Mostly Clear with Mist and Fog 63 17.2 63 17.2 100 100 SSW 5 7 29.9 1013 5 8.0467 N/A
3:07 am 03:07 Mostly Cloudy 65 18.3 65 18.3 100 100 SSW 3 6 29.91 1013 8 12.87472 N/A
3:53 am 03:53 Cloudy 66 18.9 66 18.9 100 100 N N/A 29.89 1012 8 12.87472 N/A
4:26 am 04:26 Cloudy 67 19.4 67 19.4 100 100 W 5 7 29.91 1013 10 16.0934 N/A
4:53 am 04:53 Cloudy 68 20 67 19.4 96 96 WNW 3 6 29.89 1012 10 16.0934 N/A
5:34 am 05:34 Cloudy 67 19.4 65 18.3 93 93 NW 3 6 29.91 1013 10 16.0934 N/A
5:53 am 05:53 Mostly Cloudy 67 19.4 65 18.3 93 93 N N/A 29.91 1013 10 16.0934 N/A
6:53 am 06:53 Cloudy 67 19.4 65 18.3 93 93 NW 3 6 29.94 1014 10 16.0934 N/A
7:53 am 07:53 Mostly Cloudy 68 20 64 17.8 87 87 N N/A 29.96 1014 10 16.0934 N/A
8:53 am 08:53 Mostly Cloudy 70 21.1 65 18.3 84 84 SSW 5 7 29.96 1015 10 16.0934 N/A
8:57 am 08:57 Partly Cloudy 70 21.1 66 18.9 87 87 WSW 5 7 29.94 1014 10 16.0934 N/A
9:53 am 09:53 Sunny 72 22.2 66 18.9 82 82 N N/A 29.97 1015 10 16.0934 N/A
10:53 am 10:53 Sunny 76 24.4 65 18.3 69 69 undefined N/A 29.96 1015 10 16.0934 N/A
11:53 am 11:53 Sunny 79 26.1 65 18.3 62 62 W 6 9 29.97 1015 10 16.0934 N/A
12:53 pm 12:53 Partly Cloudy 80 26.7 64 17.8 58 58 VRB 7 11 29.98 1015 10 16.0934 N/A
1:53 pm 13:53 Mostly Cloudy 80 26.7 64 17.8 58 58 VRB 6 9 29.98 1015 10 16.0934 N/A
2:53 pm 14:53 Mostly Cloudy 83 28.3 61 16.1 48 48 NW 12 19 29.98 1015 10 16.0934 N/A
3:53 pm 15:53 Partly Cloudy 82 27.8 59 15 46 46 NW 12 19 29.98 1015 10 16.0934 N/A
4:53 pm 16:53 Mostly Sunny 81 27.2 57 13.9 44 44 NW 14 22 29.97 1015 10 16.0934 N/A
5:53 pm 17:53 Mostly Sunny 81 27.2 57 13.9 44 44 NNW 12 19 29.97 1015 10 16.0934 N/A
6:53 pm 18:53 Sunny 80 26.7 58 14.4 47 47 WNW 13 20 29.96 1015 10 16.0934 N/A
7:53 pm 19:53 Mostly Sunny 78 25.6 58 14.4 50 50 WNW 10 17 29.98 1015 10 16.0934 N/A
8:53 pm 20:53 Sunny 76 24.4 58 14.4 54 54 NNW 7 11 29.99 1016 10 16.0934 N/A
9:53 pm 21:53 Clear 74 23.3 58 14.4 57 57 WNW 3 6 30.01 1016 10 16.0934 N/A
10:53 pm 22:53 Clear 65 18.3 62 16.7 90 90 N N/A 30.04 1017 10 16.0934 N/A
11:53 pm 23:53 Clear 63 17.2 62 16.7 97 97 N N/A 30.05 1018 10 16.0934 N/A

Powered by AerisWeather